Time,TemperatureF,DewpointF,PressureIn,WindDirection,WindDirectionDegrees,WindSpeedMPH,WindSpeedGustMPH,Humidity,HourlyPrecipIn,Conditions,Clouds,dailyrainin,SoftwareType,DateUTC
2013-02-17 00:00:00,24.8,8.8,29.87,North,353,0.0,3.2,50,0.00,,---,0.00,VWS V14.01,2013-02-17 05:00:00,
2013-02-17 00:01:00,24.8,8.8,29.87,NNW,327,8.4,8.4,50,0.00,,---,0.00,VWS V14.01,2013-02-17 05:01:00,
2013-02-17 00:06:00,24.8,8.8,29.87,NNW,345,3.9,3.9,50,0.00,,---,0.00,VWS V14.01,2013-02-17 05:06:00,
2013-02-17 00:11:00,24.8,8.8,29.87,NNW,336,4.5,4.5,50,0.00,,---,0.00,VWS V14.01,2013-02-17 05:11:00,
2013-02-17 00:16:00,24.8,8.8,29.87,NNW,332,5.8,9.1,50,0.00,,---,0.00,VWS V14.01,2013-02-17 05:16:00,
2013-02-17 00:21:00,25.0,9.0,29.87,North,349,4.5,4.5,50,0.00,,---,0.00,VWS V14.01,2013-02-17 05:21:00,
2013-02-17 00:27:00,25.0,9.0,29.87,NW,306,5.2,7.1,50,0.00,,---,0.00,VWS V14.01,2013-02-17 05:27:00,
2013-02-17 00:32:00,25.0,8.4,29.87,North,353,5.8,12.0,49,0.00,,---,0.00,VWS V14.01,2013-02-17 05:32:00,
2013-02-17 00:37:00,25.0,8.4,29.87,NNW,335,4.5,14.6,49,0.00,,---,0.00,VWS V14.01,2013-02-17 05:37:00,
2013-02-17 00:42:00,25.0,8.4,29.87,NNW,331,9.1,9.1,49,0.00,,---,0.00,VWS V14.01,2013-02-17 05:42:00,
2013-02-17 00:47:00,25.0,8.4,29.87,North,353,7.1,11.0,49,0.00,,---,0.00,VWS V14.01,2013-02-17 05:47:00,
2013-02-17 00:52:00,24.8,8.2,29.87,NW,313,3.9,7.1,49,0.00,,---,0.00,VWS V14.01,2013-02-17 05:52:00,
2013-02-17 00:57:00,24.6,8.0,29.87,NNW,336,5.2,5.8,49,0.00,,---,0.00,VWS V14.01,2013-02-17 05:57:00,
2013-02-17 01:03:00,24.6,8.0,29.87,WNW,297,3.9,5.2,49,0.00,,---,0.00,VWS V14.01,2013-02-17 06:03:00,
2013-02-17 01:08:00,24.4,7.9,29.87,NNW,337,3.9,4.5,49,0.00,,---,0.00,VWS V14.01,2013-02-17 06:08:00,
2013-02-17 01:13:00,24.3,7.7,29.87,NNW,339,0.0,0.0,49,0.00,,---,0.00,VWS V14.01,2013-02-17 06:13:00,
2013-02-17 01:18:00,24.3,7.7,29.87,NNW,333,0.0,4.5,49,0.00,,---,0.00,VWS V14.01,2013-02-17 06:18:00,
2013-02-17 01:23:00,24.1,7.5,29.87,NW,325,4.5,4.5,49,0.00,,---,0.00,VWS V14.01,2013-02-17 06:23:00,
2013-02-17 01:28:00,24.1,7.5,29.87,NNW,341,3.9,3.9,49,0.00,,---,0.00,VWS V14.01,2013-02-17 06:28:00,
2013-02-17 01:33:00,23.9,7.4,29.87,NW,326,3.9,3.9,49,0.00,,---,0.00,VWS V14.01,2013-02-17 06:33:00,
2013-02-17 01:38:00,23.9,7.4,29.87,NNW,327,0.0,0.0,49,0.00,,---,0.00,VWS V14.01,2013-02-17 06:38:00,
2013-02-17 01:44:00,23.9,7.4,29.87,NW,326,4.5,4.5,49,0.00,,---,0.00,VWS V14.01,2013-02-17 06:44:00,
2013-02-17 01:49:00,23.9,7.4,29.87,NNW,335,4.5,5.2,49,0.00,,---,0.00,VWS V14.01,2013-02-17 06:49:00,
2013-02-17 01:54:00,23.7,7.2,29.87,NNW,346,3.9,3.9,49,0.00,,---,0.00,VWS V14.01,2013-02-17 06:54:00,
2013-02-17 01:59:00,23.7,7.2,29.87,NNW,337,7.1,7.1,49,0.00,,---,0.00,VWS V14.01,2013-02-17 06:59:00,
2013-02-17 02:04:00,23.7,7.2,29.87,North,353,5.8,5.8,49,0.00,,---,0.00,VWS V14.01,2013-02-17 07:04:00,
2013-02-17 02:09:00,23.7,7.2,29.87,North,2,7.1,7.8,49,0.00,,---,0.00,VWS V14.01,2013-02-17 07:09:00,
2013-02-17 02:14:00,23.7,7.2,29.87,NNW,337,5.2,7.1,49,0.00,,---,0.00,VWS V14.01,2013-02-17 07:14:00,
2013-02-17 02:19:00,23.7,7.2,29.87,NW,320,4.5,5.8,49,0.00,,---,0.00,VWS V14.01,2013-02-17 07:19:00,
2013-02-17 02:24:00,23.7,7.2,29.87,NNW,332,5.8,8.4,49,0.00,,---,0.00,VWS V14.01,2013-02-17 07:24:00,
2013-02-17 02:29:00,23.7,7.2,29.87,NW,326,5.2,5.8,49,0.00,,---,0.00,VWS V14.01,2013-02-17 07:29:00,
2013-02-17 02:35:00,23.7,7.8,29.87,NW,322,5.2,5.2,50,0.00,,---,0.00,VWS V14.01,2013-02-17 07:35:00,
2013-02-17 02:40:00,23.7,7.8,29.87,NW,309,7.8,7.8,50,0.00,,---,0.00,VWS V14.01,2013-02-17 07:40:00,
2013-02-17 02:45:00,23.9,8.0,29.87,NNW,337,8.4,8.4,50,0.00,,---,0.00,VWS V14.01,2013-02-17 07:45:00,
2013-02-17 02:50:00,23.9,8.6,29.87,NNW,329,3.9,5.8,51,0.00,,---,0.00,VWS V14.01,2013-02-17 07:50:00,
2013-02-17 02:55:00,23.9,9.8,29.87,WNW,302,11.7,11.7,54,0.00,,---,0.00,VWS V14.01,2013-02-17 07:55:00,
2013-02-17 03:00:00,24.1,9.9,29.87,NNW,344,10.4,11.7,54,0.00,,---,0.00,VWS V14.01,2013-02-17 08:00:00,
2013-02-17 03:05:00,24.3,11.8,29.87,NNW,339,9.1,12.6,58,0.00,,---,0.00,VWS V14.01,2013-02-17 08:05:00,
2013-02-17 03:10:00,23.9,12.0,29.87,North,9,11.0,11.0,60,0.00,,---,0.00,VWS V14.01,2013-02-17 08:10:00,
2013-02-17 03:15:00,23.7,12.3,29.87,NNW,337,11.0,12.6,61,0.00,,---,0.00,VWS V14.01,2013-02-17 08:15:00,
2013-02-17 03:20:00,23.5,11.6,29.87,NNW,335,8.4,14.6,60,0.00,,---,0.00,VWS V14.01,2013-02-17 08:20:00,
2013-02-17 03:26:00,23.4,12.0,29.87,NNW,344,11.7,12.6,61,0.00,,---,0.00,VWS V14.01,2013-02-17 08:26:00,
2013-02-17 03:31:00,23.4,12.0,29.87,NW,306,4.5,5.2,61,0.00,,---,0.00,VWS V14.01,2013-02-17 08:31:00,
2013-02-17 03:36:00,23.2,11.8,29.87,NNW,331,5.8,7.1,61,0.00,,---,0.00,VWS V14.01,2013-02-17 08:36:00,
2013-02-17 03:41:00,23.0,11.6,29.87,NW,322,0.0,0.0,61,0.00,,---,0.00,VWS V14.01,2013-02-17 08:41:00,
2013-02-17 03:46:00,22.8,10.9,29.87,WNW,301,12.6,12.6,60,0.00,,---,0.00,VWS V14.01,2013-02-17 08:46:00,
2013-02-17 03:51:00,22.6,9.7,29.87,NW,323,0.0,9.7,57,0.00,,---,0.00,VWS V14.01,2013-02-17 08:51:00,
2013-02-17 03:56:00,22.6,8.6,29.87,NW,308,0.0,5.8,54,0.00,,---,0.00,VWS V14.01,2013-02-17 08:56:00,
2013-02-17 04:02:00,22.5,7.8,29.87,NW,316,0.0,8.4,53,0.00,,---,0.00,VWS V14.01,2013-02-17 09:02:00,
2013-02-17 04:07:00,22.3,7.1,29.87,North,357,3.2,5.8,51,0.00,,---,0.00,VWS V14.01,2013-02-17 09:07:00,
2013-02-17 04:12:00,22.1,6.9,29.90,NNW,340,8.4,8.4,51,0.00,,---,0.00,VWS V14.01,2013-02-17 09:12:00,
2013-02-17 04:17:00,21.9,6.2,29.90,NNW,342,5.8,5.8,50,0.00,,---,0.00,VWS V14.01,2013-02-17 09:17:00,
2013-02-17 04:22:00,21.9,6.2,29.90,NNW,330,5.8,5.8,50,0.00,,---,0.00,VWS V14.01,2013-02-17 09:22:00,
2013-02-17 04:27:00,21.7,5.4,29.87,NNW,335,7.8,12.6,49,0.00,,---,0.00,VWS V14.01,2013-02-17 09:27:00,
2013-02-17 04:32:00,21.7,5.4,29.87,NNW,331,4.5,11.0,49,0.00,,---,0.00,VWS V14.01,2013-02-17 09:32:00,
2013-02-17 04:37:00,21.6,5.2,29.87,NW,310,9.1,9.1,49,0.00,,---,0.00,VWS V14.01,2013-02-17 09:37:00,
2013-02-17 04:42:00,21.4,4.4,29.90,NW,308,0.0,11.0,47,0.00,,---,0.00,VWS V14.01,2013-02-17 09:42:00,
2013-02-17 04:48:00,21.2,4.9,29.90,NNW,335,0.0,0.0,49,0.00,,---,0.00,VWS V14.01,2013-02-17 09:48:00,
2013-02-17 04:53:00,21.2,4.9,29.90,North,0,5.2,5.8,49,0.00,,---,0.00,VWS V14.01,2013-02-17 09:53:00,
2013-02-17 04:58:00,21.0,4.7,29.90,North,353,4.5,7.8,49,0.00,,---,0.00,VWS V14.01,2013-02-17 09:58:00,
2013-02-17 05:03:00,21.0,4.7,29.90,North,357,8.4,10.4,49,0.00,,---,0.00,VWS V14.01,2013-02-17 10:03:00,
2013-02-17 05:08:00,20.8,3.9,29.90,West,267,3.2,7.1,47,0.00,,---,0.00,VWS V14.01,2013-02-17 10:08:00,
2013-02-17 05:13:00,20.8,3.9,29.90,North,357,5.2,11.0,47,0.00,,---,0.00,VWS V14.01,2013-02-17 10:13:00,
2013-02-17 05:18:00,20.7,4.4,29.90,NNW,345,3.2,5.2,49,0.00,,---,0.00,VWS V14.01,2013-02-17 10:18:00,
2013-02-17 05:23:00,20.5,3.6,29.90,North,0,3.2,5.2,47,0.00,,---,0.00,VWS V14.01,2013-02-17 10:23:00,
2013-02-17 05:28:00,20.5,3.6,29.90,NW,322,6.5,9.1,47,0.00,,---,0.00,VWS V14.01,2013-02-17 10:28:00,
2013-02-17 05:33:00,20.3,3.4,29.90,NW,316,0.0,0.0,47,0.00,,---,0.00,VWS V14.01,2013-02-17 10:33:00,
2013-02-17 05:38:00,20.3,3.4,29.90,NNW,328,7.8,9.1,47,0.00,,---,0.00,VWS V14.01,2013-02-17 10:38:00,
2013-02-17 05:44:00,20.1,3.2,29.90,North,353,3.9,3.9,47,0.00,,---,0.00,VWS V14.01,2013-02-17 10:44:00,
2013-02-17 05:49:00,20.1,3.2,29.90,WNW,298,0.0,0.0,47,0.00,,---,0.00,VWS V14.01,2013-02-17 10:49:00,
2013-02-17 05:54:00,19.9,3.1,29.90,NNW,332,5.8,5.8,47,0.00,,---,0.00,VWS V14.01,2013-02-17 10:54:00,
2013-02-17 05:59:00,19.8,2.9,29.90,WNW,297,0.0,5.2,47,0.00,,---,0.00,VWS V14.01,2013-02-17 10:59:00,
2013-02-17 06:04:00,19.8,2.9,29.90,NW,313,4.5,7.1,47,0.00,,---,0.00,VWS V14.01,2013-02-17 11:04:00,
2013-02-17 06:09:00,19.6,2.8,29.90,North,0,4.5,9.7,47,0.00,,---,0.00,VWS V14.01,2013-02-17 11:09:00,
2013-02-17 06:14:00,19.6,2.8,29.90,North,2,3.9,6.5,47,0.00,,---,0.00,VWS V14.01,2013-02-17 11:14:00,
2013-02-17 06:19:00,19.6,2.8,29.90,NNW,338,13.9,13.9,47,0.00,,---,0.00,VWS V14.01,2013-02-17 11:19:00,
2013-02-17 06:24:00,19.6,2.8,29.90,NNW,330,5.2,5.8,47,0.00,,---,0.00,VWS V14.01,2013-02-17 11:24:00,
2013-02-17 06:29:00,19.6,2.8,29.93,NNW,327,5.8,5.8,47,0.00,,---,0.00,VWS V14.01,2013-02-17 11:29:00,
2013-02-17 06:35:00,19.6,2.8,29.93,WNW,297,11.7,11.7,47,0.00,,---,0.00,VWS V14.01,2013-02-17 11:35:00,
2013-02-17 06:40:00,19.4,2.6,29.93,NNW,338,5.2,5.2,47,0.00,,---,0.00,VWS V14.01,2013-02-17 11:40:00,
2013-02-17 06:45:00,19.4,2.6,29.93,North,8,5.8,5.8,47,0.00,,---,0.00,VWS V14.01,2013-02-17 11:45:00,
2013-02-17 06:50:00,19.4,2.6,29.93,WNW,300,0.0,7.8,47,0.00,,---,0.00,VWS V14.01,2013-02-17 11:50:00,
2013-02-17 06:55:00,19.4,2.6,29.93,NW,326,0.0,3.9,47,0.00,,---,0.00,VWS V14.01,2013-02-17 11:55:00,
2013-02-17 07:00:00,19.2,2.4,29.93,North,0,5.8,8.4,47,0.00,,---,0.00,VWS V14.01,2013-02-17 12:00:00,
2013-02-17 07:05:00,19.2,2.4,29.93,North,11,3.2,8.4,47,0.00,,---,0.00,VWS V14.01,2013-02-17 12:05:00,
2013-02-17 07:10:00,19.2,2.4,29.93,NNW,339,3.9,3.9,47,0.00,,---,0.00,VWS V14.01,2013-02-17 12:10:00,
2013-02-17 07:15:00,19.2,2.4,29.93,NW,317,0.0,3.2,47,0.00,,---,0.00,VWS V14.01,2013-02-17 12:15:00,
2013-02-17 07:21:00,19.0,2.3,29.93,NNW,335,3.9,4.5,47,0.00,,---,0.00,VWS V14.01,2013-02-17 12:21:00,
2013-02-17 07:26:00,19.0,2.3,29.93,NNW,330,0.0,5.2,47,0.00,,---,0.00,VWS V14.01,2013-02-17 12:26:00,
2013-02-17 07:31:00,19.0,2.3,29.96,WNW,286,0.0,4.5,47,0.00,,---,0.00,VWS V14.01,2013-02-17 12:31:00,
2013-02-17 07:36:00,18.9,2.1,29.96,NNW,342,3.9,7.8,47,0.00,,---,0.00,VWS V14.01,2013-02-17 12:36:00,
2013-02-17 07:41:00,19.0,2.3,29.96,West,274,7.8,9.1,47,0.00,,---,0.00,VWS V14.01,2013-02-17 12:41:00,
2013-02-17 07:46:00,19.2,2.4,29.96,NNW,329,4.5,12.0,47,0.00,,---,0.00,VWS V14.01,2013-02-17 12:46:00,
2013-02-17 07:51:00,19.4,2.6,29.96,NW,317,8.4,14.6,47,0.00,,---,0.00,VWS V14.01,2013-02-17 12:51:00,
2013-02-17 07:56:00,19.8,2.3,29.96,North,353,9.1,12.0,46,0.00,,---,0.00,VWS V14.01,2013-02-17 12:56:00,
2013-02-17 08:01:00,19.8,2.3,29.96,WNW,303,12.0,15.2,46,0.00,,---,0.00,VWS V14.01,2013-02-17 13:01:00,
2013-02-17 08:07:00,19.9,2.4,29.96,NNW,334,9.1,9.1,46,0.00,,---,0.00,VWS V14.01,2013-02-17 13:07:00,
2013-02-17 08:12:00,20.1,2.6,29.96,NW,307,11.0,16.5,46,0.00,,---,0.00,VWS V14.01,2013-02-17 13:12:00,
2013-02-17 08:17:00,20.3,2.8,29.96,WNW,291,7.1,11.7,46,0.00,,---,0.00,VWS V14.01,2013-02-17 13:17:00,
2013-02-17 08:22:00,20.5,2.9,29.96,NW,323,5.2,13.3,46,0.00,,---,0.00,VWS V14.01,2013-02-17 13:22:00,
2013-02-17 08:27:00,20.5,2.9,29.99,NNW,343,5.8,12.6,46,0.00,,---,0.00,VWS V14.01,2013-02-17 13:27:00,
2013-02-17 08:32:00,20.5,2.9,29.99,NNW,327,3.2,12.6,46,0.00,,---,0.00,VWS V14.01,2013-02-17 13:32:00,
2013-02-17 08:37:00,20.3,2.8,29.99,NE,51,7.8,8.4,46,0.00,,---,0.00,VWS V14.01,2013-02-17 13:37:00,
2013-02-17 08:43:00,20.5,2.9,29.99,North,0,12.0,12.0,46,0.00,,---,0.00,VWS V14.01,2013-02-17 13:43:00,
2013-02-17 08:48:00,20.5,2.9,29.99,NNW,343,9.1,13.9,46,0.00,,---,0.00,VWS V14.01,2013-02-17 13:48:00,
2013-02-17 08:53:00,20.5,2.9,29.99,WSW,237,3.9,7.1,46,0.00,,---,0.00,VWS V14.01,2013-02-17 13:53:00,
2013-02-17 08:58:00,20.7,3.1,29.99,NNW,332,15.2,15.2,46,0.00,,---,0.00,VWS V14.01,2013-02-17 13:58:00,
2013-02-17 09:03:00,20.7,3.1,29.99,WSW,240,15.9,15.9,46,0.00,,---,0.00,VWS V14.01,2013-02-17 14:03:00,
2013-02-17 09:08:00,20.3,2.8,29.99,North,353,12.6,21.7,46,0.00,,---,0.00,VWS V14.01,2013-02-17 14:08:00,
2013-02-17 09:13:00,20.3,2.8,29.99,NNW,337,4.5,14.6,46,0.00,,---,0.00,VWS V14.01,2013-02-17 14:13:00,
2013-02-17 09:18:00,20.5,2.9,29.99,West,279,9.1,18.5,46,0.00,,---,0.00,VWS V14.01,2013-02-17 14:18:00,
2013-02-17 09:24:00,20.7,3.1,29.99,North,0,12.6,12.6,46,0.00,,---,0.00,VWS V14.01,2013-02-17 14:24:00,
2013-02-17 09:29:00,20.7,3.1,29.99,WSW,247,7.1,7.1,46,0.00,,---,0.00,VWS V14.01,2013-02-17 14:29:00,
2013-02-17 09:34:00,20.8,3.3,29.99,NNW,332,13.3,14.6,46,0.00,,---,0.00,VWS V14.01,2013-02-17 14:34:00,
2013-02-17 09:39:00,21.0,2.8,29.99,North,350,9.1,12.6,44,0.00,,---,0.00,VWS V14.01,2013-02-17 14:39:00,
2013-02-17 09:44:00,21.0,2.8,29.99,NNW,346,17.8,18.5,44,0.00,,---,0.00,VWS V14.01,2013-02-17 14:44:00,
2013-02-17 09:49:00,21.2,2.9,29.99,NNW,339,10.4,25.3,44,0.00,,---,0.00,VWS V14.01,2013-02-17 14:49:00,
2013-02-17 09:55:00,21.2,2.9,29.99,WNW,297,9.1,12.0,44,0.00,,---,0.00,VWS V14.01,2013-02-17 14:55:00,
2013-02-17 10:00:00,21.4,3.1,29.99,NNW,335,10.4,10.4,44,0.00,,---,0.00,VWS V14.01,2013-02-17 15:00:00,
2013-02-17 10:05:00,21.6,3.3,29.99,North,353,9.1,15.2,44,0.00,,---,0.00,VWS V14.01,2013-02-17 15:05:00,
2013-02-17 10:10:00,21.6,3.3,29.99,North,6,0.0,5.8,44,0.00,,---,0.00,VWS V14.01,2013-02-17 15:10:00,
2013-02-17 10:15:00,21.7,3.4,30.02,North,353,11.7,19.1,44,0.00,,---,0.00,VWS V14.01,2013-02-17 15:15:00,
2013-02-17 10:20:00,21.9,3.6,30.02,NNW,342,11.0,11.0,44,0.00,,---,0.00,VWS V14.01,2013-02-17 15:20:00,
2013-02-17 10:25:00,21.9,3.6,30.02,NNW,340,7.1,9.7,44,0.00,,---,0.00,VWS V14.01,2013-02-17 15:25:00,
2013-02-17 10:30:00,21.9,3.6,30.02,NNE,32,11.0,11.0,44,0.00,,---,0.00,VWS V14.01,2013-02-17 15:30:00,
2013-02-17 10:35:00,22.1,3.8,30.02,West,277,5.2,8.4,44,0.00,,---,0.00,VWS V14.01,2013-02-17 15:35:00,
2013-02-17 10:41:00,22.1,3.8,30.02,NW,308,4.5,4.5,44,0.00,,---,0.00,VWS V14.01,2013-02-17 15:41:00,
2013-02-17 10:46:00,21.9,3.6,30.02,NNW,338,3.9,15.9,44,0.00,,---,0.00,VWS V14.01,2013-02-17 15:46:00,
2013-02-17 10:51:00,21.9,3.6,30.02,NW,326,11.0,12.6,44,0.00,,---,0.00,VWS V14.01,2013-02-17 15:51:00,
2013-02-17 10:56:00,21.9,3.6,30.02,NNW,335,3.9,7.8,44,0.00,,---,0.00,VWS V14.01,2013-02-17 15:56:00,
2013-02-17 11:01:00,21.9,3.6,30.02,NNW,328,3.9,17.2,44,0.00,,---,0.00,VWS V14.01,2013-02-17 16:01:00,
2013-02-17 11:06:00,22.1,3.8,30.02,NW,321,15.9,15.9,44,0.00,,---,0.00,VWS V14.01,2013-02-17 16:06:00,
2013-02-17 11:11:00,22.3,3.9,30.02,South,174,5.2,15.2,44,0.00,,---,0.00,VWS V14.01,2013-02-17 16:11:00,
2013-02-17 11:16:00,22.6,2.9,30.02,NW,312,7.8,7.8,42,0.00,,---,0.00,VWS V14.01,2013-02-17 16:16:00,
2013-02-17 11:22:00,22.6,2.9,30.02,NW,325,12.0,15.2,42,0.00,,---,0.00,VWS V14.01,2013-02-17 16:22:00,
2013-02-17 11:27:00,22.5,2.7,30.02,NNW,330,12.6,12.6,42,0.00,,---,0.00,VWS V14.01,2013-02-17 16:27:00,
2013-02-17 11:32:00,22.5,2.7,30.02,SSW,204,5.2,19.1,42,0.00,,---,0.00,VWS V14.01,2013-02-17 16:32:00,
2013-02-17 11:37:00,22.3,2.5,30.02,SSW,203,5.2,18.5,42,0.00,,---,0.00,VWS V14.01,2013-02-17 16:37:00,
2013-02-17 11:42:00,22.3,2.5,30.05,NW,319,19.1,21.7,42,0.00,,---,0.00,VWS V14.01,2013-02-17 16:42:00,
2013-02-17 11:47:00,22.5,2.7,30.05,NNW,335,15.2,25.3,42,0.00,,---,0.00,VWS V14.01,2013-02-17 16:47:00,
2013-02-17 11:52:00,22.6,2.9,30.05,North,6,11.7,24.3,42,0.00,,---,0.00,VWS V14.01,2013-02-17 16:52:00,
2013-02-17 11:57:00,22.6,2.9,30.05,NNE,26,11.7,15.2,42,0.00,,---,0.00,VWS V14.01,2013-02-17 16:57:00,
2013-02-17 12:03:00,23.0,3.2,30.05,NW,322,5.2,18.5,42,0.00,,---,0.00,VWS V14.01,2013-02-17 17:03:00,
2013-02-17 12:08:00,23.0,3.2,30.05,North,357,5.2,7.8,42,0.00,,---,0.00,VWS V14.01,2013-02-17 17:08:00,
2013-02-17 12:13:00,23.4,2.8,30.05,NNW,330,6.5,9.1,40,0.00,,---,0.00,VWS V14.01,2013-02-17 17:13:00,
2013-02-17 12:18:00,23.9,3.3,30.05,NNW,331,5.8,8.4,40,0.00,,---,0.00,VWS V14.01,2013-02-17 17:18:00,
2013-02-17 12:23:00,24.1,3.4,30.05,North,353,12.0,15.9,40,0.00,,---,0.00,VWS V14.01,2013-02-17 17:23:00,
2013-02-17 12:28:00,24.3,3.6,30.05,SSW,202,5.8,11.0,40,0.00,,---,0.00,VWS V14.01,2013-02-17 17:28:00,
2013-02-17 12:33:00,24.1,1.9,30.05,NNE,28,7.8,12.0,38,0.00,,---,0.00,VWS V14.01,2013-02-17 17:33:00,
2013-02-17 12:39:00,24.3,3.6,30.05,NNE,14,11.0,15.9,40,0.00,,---,0.00,VWS V14.01,2013-02-17 17:39:00,
2013-02-17 12:44:00,24.4,3.8,30.05,NNW,337,4.5,6.5,40,0.00,,---,0.00,VWS V14.01,2013-02-17 17:44:00,
2013-02-17 12:49:00,24.8,4.1,30.05,NNE,33,0.0,5.2,40,0.00,,---,0.00,VWS V14.01,2013-02-17 17:49:00,
2013-02-17 12:54:00,25.2,2.0,30.05,NNW,346,15.9,19.1,36,0.00,,---,0.00,VWS V14.01,2013-02-17 17:54:00,
2013-02-17 12:59:00,25.0,1.9,30.05,NNW,339,12.6,15.9,36,0.00,,---,0.00,VWS V14.01,2013-02-17 17:59:00,
2013-02-17 13:04:00,24.6,2.4,30.05,NNW,341,9.1,12.6,38,0.00,,---,0.00,VWS V14.01,2013-02-17 18:04:00,
2013-02-17 13:09:00,24.4,2.2,30.05,WNW,299,11.0,11.0,38,0.00,,---,0.00,VWS V14.01,2013-02-17 18:09:00,
2013-02-17 13:14:00,24.4,2.2,30.05,NW,313,12.6,16.5,38,0.00,,---,0.00,VWS V14.01,2013-02-17 18:14:00,
2013-02-17 13:19:00,24.1,1.9,30.05,NNW,331,11.0,18.5,38,0.00,,---,0.00,VWS V14.01,2013-02-17 18:19:00,
2013-02-17 13:24:00,23.5,1.4,30.05,North,349,11.0,18.5,38,0.00,,---,0.00,VWS V14.01,2013-02-17 18:24:00,
2013-02-17 13:30:00,23.5,1.4,30.05,NNW,342,5.8,7.8,38,0.00,,---,0.00,VWS V14.01,2013-02-17 18:30:00,
2013-02-17 13:35:00,23.5,1.4,30.05,NNW,346,8.4,15.9,38,0.00,,---,0.00,VWS V14.01,2013-02-17 18:35:00,
2013-02-17 13:40:00,23.4,1.2,30.05,NNW,346,11.7,11.7,38,0.00,,---,0.00,VWS V14.01,2013-02-17 18:40:00,
2013-02-17 13:45:00,23.5,1.4,30.02,North,0,17.8,17.8,38,0.00,,---,0.00,VWS V14.01,2013-02-17 18:45:00,
2013-02-17 13:50:00,23.9,1.7,30.02,WNW,303,11.0,12.6,38,0.00,,---,0.00,VWS V14.01,2013-02-17 18:50:00,
2013-02-17 13:55:00,24.1,1.9,30.02,North,3,11.7,15.9,38,0.00,,---,0.00,VWS V14.01,2013-02-17 18:55:00,
2013-02-17 14:00:00,24.4,2.2,30.02,WNW,297,5.2,5.2,38,0.00,,---,0.00,VWS V14.01,2013-02-17 19:00:00,
2013-02-17 14:06:00,24.3,2.1,30.02,NNW,342,11.0,11.0,38,0.00,,---,0.00,VWS V14.01,2013-02-17 19:06:00,
2013-02-17 14:11:00,23.9,1.7,30.02,NW,316,9.7,9.7,38,0.00,,---,0.00,VWS V14.01,2013-02-17 19:11:00,
2013-02-17 14:16:00,23.7,1.6,30.05,NW,316,4.5,7.1,38,0.00,,---,0.00,VWS V14.01,2013-02-17 19:16:00,
2013-02-17 14:21:00,24.3,2.1,30.05,North,5,11.0,18.5,38,0.00,,---,0.00,VWS V14.01,2013-02-17 19:21:00,
2013-02-17 14:26:00,24.6,2.4,30.02,NW,315,15.9,15.9,38,0.00,,---,0.00,VWS V14.01,2013-02-17 19:26:00,
2013-02-17 14:31:00,25.3,2.2,30.02,NNW,331,24.7,24.7,36,0.00,,---,0.00,VWS V14.01,2013-02-17 19:31:00,
2013-02-17 14:36:00,25.7,2.5,30.02,NW,322,20.4,21.7,36,0.00,,---,0.00,VWS V14.01,2013-02-17 19:36:00,
2013-02-17 14:42:00,25.7,2.5,30.02,NNW,342,17.8,17.8,36,0.00,,---,0.00,VWS V14.01,2013-02-17 19:42:00,
2013-02-17 14:47:00,25.7,2.5,30.02,SSE,160,9.1,11.0,36,0.00,,---,0.00,VWS V14.01,2013-02-17 19:47:00,
2013-02-17 14:52:00,25.7,2.5,30.02,NNW,346,22.4,22.4,36,0.00,,---,0.00,VWS V14.01,2013-02-17 19:52:00,
2013-02-17 14:57:00,25.5,2.4,30.02,NNW,341,11.0,19.1,36,0.00,,---,0.00,VWS V14.01,2013-02-17 19:57:00,
2013-02-17 15:02:00,25.9,2.7,30.02,North,353,9.1,12.0,36,0.00,,---,0.00,VWS V14.01,2013-02-17 20:02:00,
2013-02-17 15:07:00,25.5,2.4,30.02,North,4,11.0,12.6,36,0.00,,---,0.00,VWS V14.01,2013-02-17 20:07:00,
2013-02-17 15:12:00,25.3,2.2,30.02,NNW,330,17.8,17.8,36,0.00,,---,0.00,VWS V14.01,2013-02-17 20:12:00,
2013-02-17 15:18:00,25.3,2.2,30.02,North,1,12.6,12.6,36,0.00,,---,0.00,VWS V14.01,2013-02-17 20:18:00,
2013-02-17 15:23:00,25.0,0.2,30.02,North,353,11.7,11.7,33,0.00,,---,0.00,VWS V14.01,2013-02-17 20:23:00,
2013-02-17 15:28:00,24.6,-0.1,30.05,North,0,18.5,18.5,33,0.00,,---,0.00,VWS V14.01,2013-02-17 20:28:00,
2013-02-17 15:33:00,25.0,0.2,30.05,NW,325,12.0,12.6,33,0.00,,---,0.00,VWS V14.01,2013-02-17 20:33:00,
2013-02-17 15:38:00,25.5,2.4,30.05,NW,317,8.4,8.4,36,0.00,,---,0.00,VWS V14.01,2013-02-17 20:38:00,
2013-02-17 15:43:00,25.9,1.0,30.05,North,353,14.6,14.6,33,0.00,,---,0.00,VWS V14.01,2013-02-17 20:43:00,
2013-02-17 15:48:00,25.7,0.8,30.05,NNW,338,19.1,19.1,33,0.00,,---,0.00,VWS V14.01,2013-02-17 20:48:00,
2013-02-17 15:53:00,26.1,2.9,30.05,NNW,341,12.0,15.9,36,0.00,,---,0.00,VWS V14.01,2013-02-17 20:53:00,
2013-02-17 15:58:00,26.4,3.2,30.05,NW,326,12.6,17.8,36,0.00,,---,0.00,VWS V14.01,2013-02-17 20:58:00,
2013-02-17 16:04:00,26.8,0.9,30.05,North,357,8.4,11.0,32,0.00,,---,0.00,VWS V14.01,2013-02-17 21:04:00,
2013-02-17 16:09:00,26.8,0.9,30.05,North,5,12.6,12.6,32,0.00,,---,0.00,VWS V14.01,2013-02-17 21:09:00,
2013-02-17 16:14:00,26.8,0.9,30.05,NW,310,5.8,9.1,32,0.00,,---,0.00,VWS V14.01,2013-02-17 21:14:00,
2013-02-17 16:19:00,27.0,1.0,30.05,WNW,302,8.4,8.4,32,0.00,,---,0.00,VWS V14.01,2013-02-17 21:19:00,
2013-02-17 16:24:00,27.1,1.2,30.05,NW,306,3.9,5.2,32,0.00,,---,0.00,VWS V14.01,2013-02-17 21:24:00,
2013-02-17 16:29:00,27.1,1.2,30.05,NNW,334,15.2,19.1,32,0.00,,---,0.00,VWS V14.01,2013-02-17 21:29:00,
2013-02-17 16:35:00,27.0,1.0,30.05,North,353,7.8,7.8,32,0.00,,---,0.00,VWS V14.01,2013-02-17 21:35:00,
2013-02-17 16:40:00,26.4,1.5,30.05,North,5,8.4,8.4,33,0.00,,---,0.00,VWS V14.01,2013-02-17 21:40:00,
2013-02-17 16:45:00,26.1,1.1,30.05,NNE,25,7.1,8.4,33,0.00,,---,0.00,VWS V14.01,2013-02-17 21:45:00,
2013-02-17 16:50:00,25.9,1.0,30.05,NNW,328,17.8,17.8,33,0.00,,---,0.00,VWS V14.01,2013-02-17 21:50:00,
2013-02-17 16:55:00,25.7,0.8,30.05,NNW,341,15.2,23.0,33,0.00,,---,0.00,VWS V14.01,2013-02-17 21:55:00,
2013-02-17 17:00:00,25.3,0.5,30.08,North,0,11.7,11.7,33,0.00,,---,0.00,VWS V14.01,2013-02-17 22:00:00,
2013-02-17 17:05:00,25.2,0.3,30.08,NW,323,8.4,12.6,33,0.00,,---,0.00,VWS V14.01,2013-02-17 22:05:00,
2013-02-17 17:10:00,25.0,0.2,30.08,NNW,340,18.5,18.5,33,0.00,,---,0.00,VWS V14.01,2013-02-17 22:10:00,
2013-02-17 17:15:00,24.6,-0.1,30.08,NNW,332,8.4,15.9,33,0.00,,---,0.00,VWS V14.01,2013-02-17 22:15:00,
2013-02-17 17:20:00,24.4,-0.3,30.08,North,7,17.8,17.8,33,0.00,,---,0.00,VWS V14.01,2013-02-17 22:20:00,
2013-02-17 17:26:00,24.3,-0.5,30.08,NNW,336,11.0,11.0,33,0.00,,---,0.00,VWS V14.01,2013-02-17 22:26:00,
2013-02-17 17:31:00,24.1,-0.6,30.08,NNE,17,8.4,11.7,33,0.00,,---,0.00,VWS V14.01,2013-02-17 22:31:00,
2013-02-17 17:36:00,23.9,-0.8,30.08,NNW,338,7.8,9.1,33,0.00,,---,0.00,VWS V14.01,2013-02-17 22:36:00,
2013-02-17 17:41:00,23.7,-0.9,30.08,NNW,345,8.4,14.6,33,0.00,,---,0.00,VWS V14.01,2013-02-17 22:41:00,
2013-02-17 17:46:00,23.5,-1.1,30.08,NW,320,15.9,15.9,33,0.00,,---,0.00,VWS V14.01,2013-02-17 22:46:00,
2013-02-17 17:51:00,23.4,-1.3,30.08,NW,307,7.1,11.7,33,0.00,,---,0.00,VWS V14.01,2013-02-17 22:51:00,
2013-02-17 17:56:00,23.2,-1.4,30.11,North,353,8.4,9.1,33,0.00,,---,0.00,VWS V14.01,2013-02-17 22:56:00,
2013-02-17 18:01:00,23.0,-0.7,30.11,NW,325,7.8,10.4,35,0.00,,---,0.00,VWS V14.01,2013-02-17 23:01:00,
2013-02-17 18:06:00,22.8,-0.9,30.11,NNW,336,5.8,5.8,35,0.00,,---,0.00,VWS V14.01,2013-02-17 23:06:00,
2013-02-17 18:11:00,22.6,-1.0,30.11,NNW,343,4.5,5.8,35,0.00,,---,0.00,VWS V14.01,2013-02-17 23:11:00,
2013-02-17 18:16:00,22.5,-1.2,30.11,NNW,340,12.0,12.0,35,0.00,,---,0.00,VWS V14.01,2013-02-17 23:16:00,
2013-02-17 18:21:00,22.5,-1.2,30.11,North,11,3.9,4.5,35,0.00,,---,0.00,VWS V14.01,2013-02-17 23:21:00,
2013-02-17 18:27:00,22.3,-1.4,30.11,North,353,4.5,4.5,35,0.00,,---,0.00,VWS V14.01,2013-02-17 23:27:00,
2013-02-17 18:32:00,22.1,-1.5,30.11,North,0,7.8,12.6,35,0.00,,---,0.00,VWS V14.01,2013-02-17 23:32:00,
2013-02-17 18:37:00,22.1,-1.5,30.11,NNW,341,8.4,8.4,35,0.00,,---,0.00,VWS V14.01,2013-02-17 23:37:00,
2013-02-17 18:42:00,21.9,-1.7,30.11,NNW,337,5.2,9.1,35,0.00,,---,0.00,VWS V14.01,2013-02-17 23:42:00,
2013-02-17 18:47:00,21.7,-1.8,30.11,North,357,7.1,7.1,35,0.00,,---,0.00,VWS V14.01,2013-02-17 23:47:00,
2013-02-17 18:52:00,21.7,-1.8,30.11,NNW,340,7.1,11.7,35,0.00,,---,0.00,VWS V14.01,2013-02-17 23:52:00,
2013-02-17 18:57:00,21.6,-2.0,30.14,North,353,8.4,11.0,35,0.00,,---,0.00,VWS V14.01,2013-02-17 23:57:00,
2013-02-17 19:02:00,21.6,-2.0,30.14,NNW,342,4.5,5.2,35,0.00,,---,0.00,VWS V14.01,2013-02-18 00:02:00,
2013-02-17 19:08:00,21.4,-2.2,30.14,NNE,21,7.8,7.8,35,0.00,,---,0.00,VWS V14.01,2013-02-18 00:08:00,
2013-02-17 19:13:00,21.2,-2.3,30.14,North,0,4.5,5.2,35,0.00,,---,0.00,VWS V14.01,2013-02-18 00:13:00,
2013-02-17 19:18:00,21.2,-2.3,30.14,North,11,3.2,5.8,35,0.00,,---,0.00,VWS V14.01,2013-02-18 00:18:00,
2013-02-17 19:23:00,21.0,-2.5,30.14,North,357,3.9,4.5,35,0.00,,---,0.00,VWS V14.01,2013-02-18 00:23:00,
2013-02-17 19:28:00,20.8,-2.6,30.14,North,357,0.0,0.0,35,0.00,,---,0.00,VWS V14.01,2013-02-18 00:28:00,
2013-02-17 19:33:00,20.7,-2.8,30.14,North,11,0.0,3.2,35,0.00,,---,0.00,VWS V14.01,2013-02-18 00:33:00,
2013-02-17 19:38:00,20.5,-3.0,30.14,NNE,31,0.0,3.2,35,0.00,,---,0.00,VWS V14.01,2013-02-18 00:38:00,
2013-02-17 19:44:00,20.3,-3.1,30.14,North,3,0.0,3.2,35,0.00,,---,0.00,VWS V14.01,2013-02-18 00:44:00,
2013-02-17 19:49:00,20.3,-3.1,30.14,NE,36,0.0,0.0,35,0.00,,---,0.00,VWS V14.01,2013-02-18 00:49:00,
2013-02-17 19:54:00,20.3,-3.1,30.14,NE,42,0.0,0.0,35,0.00,,---,0.00,VWS V14.01,2013-02-18 00:54:00,
2013-02-17 19:59:00,20.1,-3.3,30.14,NE,42,0.0,0.0,35,0.00,,---,0.00,VWS V14.01,2013-02-18 00:59:00,
2013-02-17 20:04:00,19.9,-3.4,30.14,NE,42,0.0,0.0,35,0.00,,---,0.00,VWS V14.01,2013-02-18 01:04:00,
2013-02-17 20:09:00,19.8,-3.6,30.14,NE,41,3.9,3.9,35,0.00,,---,0.00,VWS V14.01,2013-02-18 01:09:00,
2013-02-17 20:14:00,19.8,-3.6,30.14,NNE,32,0.0,4.5,35,0.00,,---,0.00,VWS V14.01,2013-02-18 01:14:00,
2013-02-17 20:19:00,19.8,-3.6,30.14,NNE,33,0.0,0.0,35,0.00,,---,0.00,VWS V14.01,2013-02-18 01:19:00,
2013-02-17 20:24:00,19.8,-3.6,30.14,NNE,15,0.0,3.9,35,0.00,,---,0.00,VWS V14.01,2013-02-18 01:24:00,
2013-02-17 20:30:00,19.8,-3.6,30.16,NE,44,3.2,3.2,35,0.00,,---,0.00,VWS V14.01,2013-02-18 01:30:00,
2013-02-17 20:35:00,19.8,-3.6,30.16,NE,45,5.2,5.2,35,0.00,,---,0.00,VWS V14.01,2013-02-18 01:35:00,
2013-02-17 20:40:00,19.6,-3.8,30.16,NE,36,0.0,4.5,35,0.00,,---,0.00,VWS V14.01,2013-02-18 01:40:00,
2013-02-17 20:45:00,19.6,-3.8,30.16,NE,49,3.2,3.2,35,0.00,,---,0.00,VWS V14.01,2013-02-18 01:45:00,
2013-02-17 20:50:00,19.6,-3.8,30.16,NNE,24,0.0,3.9,35,0.00,,---,0.00,VWS V14.01,2013-02-18 01:50:00,
2013-02-17 20:55:00,19.4,-3.9,30.16,NNE,17,3.2,3.2,35,0.00,,---,0.00,VWS V14.01,2013-02-18 01:55:00,
2013-02-17 21:00:00,19.4,-1.5,30.14,NNE,28,0.0,3.2,39,0.00,,---,0.00,VWS V14.01,2013-02-18 02:00:00,
2013-02-17 21:06:00,19.4,-1.5,30.14,NNE,27,0.0,0.0,39,0.00,,---,0.00,VWS V14.01,2013-02-18 02:06:00,
2013-02-17 21:11:00,19.4,-1.5,30.14,NNE,21,0.0,0.0,39,0.00,,---,0.00,VWS V14.01,2013-02-18 02:11:00,
2013-02-17 21:16:00,19.4,-1.5,30.16,NNE,21,0.0,0.0,39,0.00,,---,0.00,VWS V14.01,2013-02-18 02:16:00,
2013-02-17 21:21:00,19.2,-1.7,30.16,NNE,21,0.0,0.0,39,0.00,,---,0.00,VWS V14.01,2013-02-18 02:21:00,
2013-02-17 21:26:00,19.0,-1.9,30.16,NNE,21,0.0,0.0,39,0.00,,---,0.00,VWS V14.01,2013-02-18 02:26:00,
2013-02-17 21:31:00,19.0,-1.9,30.16,NNE,21,0.0,0.0,39,0.00,,---,0.00,VWS V14.01,2013-02-18 02:31:00,
2013-02-17 21:36:00,18.9,-2.0,30.16,NNE,21,0.0,0.0,39,0.00,,---,0.00,VWS V14.01,2013-02-18 02:36:00,
2013-02-17 21:41:00,18.7,-2.2,30.16,NNE,21,0.0,0.0,39,0.00,,---,0.00,VWS V14.01,2013-02-18 02:41:00,
2013-02-17 21:46:00,18.5,-2.4,30.16,NNE,21,0.0,0.0,39,0.00,,---,0.00,VWS V14.01,2013-02-18 02:46:00,
2013-02-17 21:51:00,18.3,-2.5,30.16,NNE,21,0.0,0.0,39,0.00,,---,0.00,VWS V14.01,2013-02-18 02:51:00,
2013-02-17 21:57:00,18.1,-2.7,30.16,NNE,21,0.0,0.0,39,0.00,,---,0.00,VWS V14.01,2013-02-18 02:57:00,
2013-02-17 22:02:00,18.1,-2.7,30.16,NNE,21,0.0,0.0,39,0.00,,---,0.00,VWS V14.01,2013-02-18 03:02:00,
2013-02-17 22:07:00,18.0,-2.8,30.16,NNE,21,0.0,0.0,39,0.00,,---,0.00,VWS V14.01,2013-02-18 03:07:00,
2013-02-17 22:12:00,17.8,-3.0,30.16,NNE,21,0.0,3.2,39,0.00,,---,0.00,VWS V14.01,2013-02-18 03:12:00,
2013-02-17 22:17:00,17.6,-3.2,30.16,North,10,0.0,3.2,39,0.00,,---,0.00,VWS V14.01,2013-02-18 03:17:00,
2013-02-17 22:22:00,17.1,-3.7,30.16,NNW,333,3.9,5.2,39,0.00,,---,0.00,VWS V14.01,2013-02-18 03:22:00,
2013-02-17 22:28:00,16.9,-3.8,30.16,NNW,343,5.8,5.8,39,0.00,,---,0.00,VWS V14.01,2013-02-18 03:28:00,
2013-02-17 22:33:00,16.9,-1.7,30.16,NNW,329,5.8,7.8,43,0.00,,---,0.00,VWS V14.01,2013-02-18 03:33:00,
2013-02-17 22:38:00,17.2,-1.4,30.16,North,9,8.4,8.4,43,0.00,,---,0.00,VWS V14.01,2013-02-18 03:38:00,
2013-02-17 22:43:00,17.8,0.5,30.16,NNW,342,11.0,11.0,46,0.00,,---,0.00,VWS V14.01,2013-02-18 03:43:00,
2013-02-17 22:48:00,18.3,1.0,30.16,NNW,339,8.4,8.4,46,0.00,,---,0.00,VWS V14.01,2013-02-18 03:48:00,
2013-02-17 22:53:00,18.5,1.1,30.16,NNW,335,3.2,5.2,46,0.00,,---,0.00,VWS V14.01,2013-02-18 03:53:00,
2013-02-17 22:58:00,18.7,1.3,30.16,NNE,17,0.0,0.0,46,0.00,,---,0.00,VWS V14.01,2013-02-18 03:58:00,
2013-02-17 23:03:00,18.7,-0.7,30.16,SSE,152,0.0,0.0,42,0.00,,---,0.00,VWS V14.01,2013-02-18 04:03:00,
2013-02-17 23:08:00,18.5,-0.9,30.16,SE,127,4.5,4.5,42,0.00,,---,0.00,VWS V14.01,2013-02-18 04:08:00,
2013-02-17 23:13:00,18.3,-1.1,30.16,SSE,149,0.0,3.9,42,0.00,,---,0.00,VWS V14.01,2013-02-18 04:13:00,
2013-02-17 23:18:00,18.1,-1.2,30.16,SE,137,7.1,7.1,42,0.00,,---,0.00,VWS V14.01,2013-02-18 04:18:00,
2013-02-17 23:23:00,17.8,-1.6,30.16,East,85,5.8,7.8,42,0.00,,---,0.00,VWS V14.01,2013-02-18 04:23:00,
2013-02-17 23:28:00,18.1,-1.2,30.16,SE,145,3.2,3.9,42,0.00,,---,0.00,VWS V14.01,2013-02-18 04:28:00,
2013-02-17 23:33:00,18.3,1.0,30.16,SE,146,0.0,0.0,46,0.00,,---,0.00,VWS V14.01,2013-02-18 04:33:00,
2013-02-17 23:39:00,18.3,1.0,30.16,SSW,194,0.0,0.0,46,0.00,,---,0.00,VWS V14.01,2013-02-18 04:39:00,
2013-02-17 23:44:00,18.0,0.6,30.16,WSW,249,3.2,4.5,46,0.00,,---,0.00,VWS V14.01,2013-02-18 04:44:00,
2013-02-17 23:49:00,18.1,0.8,30.16,NW,312,0.0,0.0,46,0.00,,---,0.00,VWS V14.01,2013-02-18 04:49:00,
2013-02-17 23:54:00,18.1,0.8,30.16,NNW,336,0.0,0.0,46,0.00,,---,0.00,VWS V14.01,2013-02-18 04:54:00,
2013-02-17 23:59:00,18.0,0.6,30.19,NNW,327,0.0,0.0,46,0.00,,---,0.00,VWS V14.01,2013-02-18 04:59:00,